"Pseudo-MPEC" for P129ved

Created 2025 Apr 30 6:31:06 UT using Find_Orb

Click here for an explanation of pseudo-MPECs

 
 Astrometry: 
     P129ved* C2025 04 26.51909314 09 23.803+22 43 58.87   ~4QEl 21.44wXNEOCPF51
     P129ved  C2025 04 26.53183914 09 22.511+22 43 51.57   ~4QEl 21.22wXNEOCPF51
     P129ved  C2025 04 26.54464714 09 21.204+22 43 44.24   ~4QEl 21.57wXNEOCPF51
     P129ved  C2025 04 26.55739214 09 19.918+22 43 37.01   ~4QEl 21.49wXNEOCPF51
     P129ved  C2025 04 26.61506214 09 14.135+22 43 03.68   ~4QHH 21.91GVNEOCPF52
     P129ved  C2025 04 26.61569514 09 14.051+22 43 03.35   ~4QHH 21.89GVNEOCPF52
     P129ved KC2025 04 27.92191214 07 06.66 +22 30 20.1    ~4RNH 21.7 GVNEOCPL01
     P129ved KC2025 04 27.94159614 07 04.65 +22 30 08.4    ~4RNH 21.8 GVNEOCPL01
     P129ved KC2025 04 27.94285914 07 04.55 +22 30 07.5    ~4RNH 21.5 GVNEOCPL01
     P129ved  C2025 04 29.32996014 04 49.460+22 15 33.60   ~4T9l 22.3 RVNEOCP691
     P129ved  C2025 04 29.35612014 04 46.810+22 15 16.30   ~4T9l 22.2 RVNEOCP691
     P129ved  C2025 04 29.37443014 04 45.010+22 15 04.30   ~4T9l 22.2 RVNEOCP691

Station data:
(691) Steward Observatory, Kitt Peak - Spacewatch  (N31.962174 W111.600327)
   US/Arizona.  Observer J. V. Scotti. 0.9-m f/3 reflector + CCD.
(F51) Pan-STARRS 1, Haleakala  (N20.707234 W156.255910)  US/Hawaii.
   Observers J. Bulger, T. Lowe, A. Schultz, M. Willman. Measurers K.
   Chambers, S. Chastel, T. de Boer, L. Denneau, J. Fairlamb, H. Flewelling,
   M. Huber, C.-C. Lin, E. Magnier, Y. Ramanjooloo, R. Wainscoat, R. Weryk.
   1.8-m Ritchey-Chrétien + CCD.
(F52) Pan-STARRS 2, Haleakala  (N20.707382 W156.255910)  US/Hawaii.
   Observers J. Bulger, T. Dukes, T. Lowe, A. Schultz, M. Willman. Measurers
   K. Chambers, S. Chastel, T. de Boer, L. Denneau, J. Fairlamb, H.
   Flewelling, M. Huber, C.-C. Lin, E. Magnier, Y. Ramanjooloo, R. Wainscoat,
   R. Weryk. 1.8-m Ritchey-Chrétien + CCD.
(L01) Višnjan Observatory, Tičan  (N45.290897 E13.749300)  Croatia.
   Observers K. Korlević, D. Pujagic, V. Dobos. Measurers D. Pujagic, K.
   Korlević. 1.0-m f/2.9 reflector + CCD.

Orbital elements:  P129ved
   Perihelion 2025 Dec 9.47940 +/- 10.5 TT = 11:30:20 (JD 2461018.97940)
Epoch 2025 Apr 29.0 TT = JDT 2460794.5   Earth MOID: 0.7432      AutoNEOCP
M 270.90170988 +/- 4.9              (J2000 ecliptic)
n   0.39691075 +/- 0.00563          Peri.  232.97083 +/- 3.8
a   1.83375285 +/- 0.0173           Node    70.83012 +/- 0.58
e   0.0583104 +/- 0.0078            Incl.   23.73428 +/- 0.40
P   2.483/906.988d         H 19.81  G  0.15   U  9.3
q 1.72682593 +/- 0.00876    Q 1.94067978 +/- 0.0314
From 12 observations 2025 Apr. 26-29; mean residual 0".12
Residuals in arcseconds: 
250426 F51  .03-  .06+    250426 F52  .19+  .05-    250427 L01  .09+  .02+    
250426 F51  .02+  .00     250426 F52  .10-  .02-    250429 691  .12+  .09-    
250426 F51  .08-  .02-    250427 L01  .09+  .04-    250429 691  .26-  .07-    
250426 F51  .02-  .04+    250427 L01  .28-  .16+    250429 691  .18+  .11+    

Ephemerides (geocentric):
Date (UTC) HH   RA             Dec           delta  r     elong  mag " sig PA
---- --------  ------------   ------------  ------ ------ -----  --- --------
2025 04 30 07  14 03 16.872   +22 04 48.56  .93230 1.8373 142.6 22.0 .730 144
2025 04 30 08  14 03 12.874   +22 04 19.81  .93234 1.8373 142.6 22.0 .765 144
2025 04 30 09  14 03 08.876   +22 03 51.00  .93238 1.8373 142.6 22.0 .800 144
2025 04 30 10  14 03 04.881   +22 03 22.13  .93242 1.8373 142.5 22.0 .837 144
2025 04 30 11  14 03 00.887   +22 02 53.20  .93246 1.8372 142.5 22.0 .874 144
2025 04 30 12  14 02 56.894   +22 02 24.21  .93250 1.8372 142.5 22.0 .911 144
2025 04 30 13  14 02 52.903   +22 01 55.16  .93254 1.8372 142.5 22.0 .950 144
2025 04 30 14  14 02 48.914   +22 01 26.06  .93259 1.8371 142.5 22.0 .988 144
2025 04 30 15  14 02 44.927   +22 00 56.89  .93263 1.8371 142.5 22.0 1.03 144
2025 04 30 16  14 02 40.941   +22 00 27.66  .93267 1.8371 142.5 22.0 1.07 144
2025 04 30 17  14 02 36.957   +21 59 58.37  .93271 1.8370 142.4 22.0 1.11 144
2025 04 30 18  14 02 32.974   +21 59 29.03  .93275 1.8370 142.4 22.0 1.15 144
2025 04 30 19  14 02 28.993   +21 58 59.62  .93280 1.8370 142.4 22.0 1.19 144
2025 04 30 20  14 02 25.014   +21 58 30.16  .93284 1.8369 142.4 22.0 1.23 144
2025 04 30 21  14 02 21.036   +21 58 00.63  .93288 1.8369 142.4 22.0 1.28 145
2025 04 30 22  14 02 17.061   +21 57 31.04  .93293 1.8369 142.4 22.0 1.32 145
2025 04 30 23  14 02 13.086   +21 57 01.40  .93297 1.8369 142.4 22.0 1.37 145
2025 05 01 00  14 02 09.114   +21 56 31.70  .93302 1.8368 142.3 22.0 1.41 145
2025 05 01 01  14 02 05.143   +21 56 01.93  .93306 1.8368 142.3 22.0 1.46 145
2025 05 01 02  14 02 01.175   +21 55 32.11  .93311 1.8368 142.3 22.0 1.50 144
2025 05 01 03  14 01 57.207   +21 55 02.23  .93315 1.8367 142.3 22.0 1.55 144
2025 05 01 04  14 01 53.242   +21 54 32.29  .93320 1.8367 142.3 22.0 1.60 144
2025 05 01 05  14 01 49.278   +21 54 02.29  .93325 1.8367 142.3 22.0 1.65 144
2025 05 01 06  14 01 45.317   +21 53 32.23  .93329 1.8366 142.2 22.0 1.69 144
2025 05 01 07  14 01 41.357   +21 53 02.11  .93334 1.8366 142.2 22.0 1.74 144
2025 05 01 08  14 01 37.398   +21 52 31.93  .93339 1.8366 142.2 22.0 1.79 144
2025 05 01 09  14 01 33.442   +21 52 01.70  .93344 1.8365 142.2 22.0 1.84 144
2025 05 01 10  14 01 29.487   +21 51 31.40  .93349 1.8365 142.2 22.0 1.89 144
2025 05 01 11  14 01 25.534   +21 51 01.05  .93353 1.8365 142.2 22.0 1.95 144
2025 05 01 12  14 01 21.584   +21 50 30.63  .93358 1.8365 142.2 22.0 2.00 144
2025 05 01 13  14 01 17.634   +21 50 00.16  .93363 1.8364 142.1 22.0 2.05 144
2025 05 01 14  14 01 13.687   +21 49 29.63  .93368 1.8364 142.1 22.0 2.11 144
2025 05 01 15  14 01 09.742   +21 48 59.04  .93373 1.8364 142.1 22.0 2.16 144
2025 05 01 16  14 01 05.798   +21 48 28.39  .93378 1.8363 142.1 22.0 2.22 144
2025 05 01 17  14 01 01.857   +21 47 57.68  .93383 1.8363 142.1 22.0 2.27 144
2025 05 01 18  14 00 57.917   +21 47 26.92  .93388 1.8363 142.1 22.0 2.33 144
2025 05 01 19  14 00 53.979   +21 46 56.09  .93394 1.8362 142.0 22.0 2.38 144
2025 05 01 20  14 00 50.044   +21 46 25.21  .93399 1.8362 142.0 22.0 2.44 144
2025 05 01 21  14 00 46.110   +21 45 54.27  .93404 1.8362 142.0 22.0 2.50 144
2025 05 01 22  14 00 42.178   +21 45 23.27  .93409 1.8361 142.0 22.0 2.56 144
2025 05 01 23  14 00 38.248   +21 44 52.21  .93414 1.8361 142.0 22.0 2.62 144
2025 05 02 00  14 00 34.319   +21 44 21.09  .93420 1.8361 142.0 22.0 2.68 144
2025 05 02 01  14 00 30.393   +21 43 49.92  .93425 1.8361 141.9 22.0 2.74 144
2025 05 02 02  14 00 26.469   +21 43 18.68  .93430 1.8360 141.9 22.0 2.80 144
2025 05 02 03  14 00 22.547   +21 42 47.39  .93436 1.8360 141.9 22.0 2.86 144
2025 05 02 04  14 00 18.627   +21 42 16.04  .93441 1.8360 141.9 22.0 2.92 144
2025 05 02 05  14 00 14.708   +21 41 44.64  .93447 1.8359 141.9 22.0 2.99 144
2025 05 02 06  14 00 10.792   +21 41 13.17  .93452 1.8359 141.9 22.0 3.05 144